Other Surface Observations
Issued by NWS Upton, NY

Current Version | Previous Version | Text Only | Print | Product List | Glossary Off
Versions: 1 2 3 4 5 6 7 8 9 10 11 12 13 14 15 16 17 18 19 20 21 22 23 24 25 26 27 28 29 30 31 32 33 34 35 36 37 38 39 40 41 42 43 44 45 46 47 48 49 50

920
SXUS51 KOKX 231157
OSOOKX
New York City Metropolitan Area Weather Roundup
National Weather Service New York NY
700 AM EST FRI FEB 23 2018

CITY           SKY/WX    TMP DP  RH WIND       PRES   REMARKS
Central Park   CLOUDY    36  31  82 NE8       30.65S WCI  30
LaGuardia Arpt CLOUDY    37  32  82 NE13      30.64S WCI  29
Kennedy Intl   CLOUDY    36  31  82 NE12      30.65R WCI  28
Newark Liberty CLOUDY    38  32  79 NE9       30.64S WCI  31
Teterboro Arpt CLOUDY    37  32  82 E7G16     30.63F WCI  32
Bronx Bot Gard   N/A     36  32  87 NE13      30.66S WCI  27
Bronx Lehman C NOT AVBL
Queens College NOT AVBL
Breezy Point   NOT AVBL
Brooklyn Coll  NOT AVBL
Staten Island  NOT AVBL

>>>>>>>>>>>>>>>>>>>>>>>>>>>>>>>>> KEY <<<<<<<<<<<<<<<<<<<<<<<<<<<<<<<
> SKY/WX - Sky Condition/Present    : R : WCI - Wind Chill Index    <
>          Weather                  : E : VSB - Visibility in Miles <
> TMP    - Temperature in Deg F     : M : HX  - Heat Index          <
> DP     - Dew Point Temperature    : A : TC  - Temperature in      <
> RH     - Relative Humidity        : R :       Celsius             <
> WIND   - Direction/Speed (mph)    : K : VRB - Variable Wind Dir   <
> PRES   - Pressure (in Hg)         : S :                           <
>>>>>>>>>>>>>>>>>>>>>>>>>>>>>>>>> KEY <<<<<<<<<<<<<<<<<<<<<<<<<<<<<<<




USA.gov is the U.S. government's official web portal to all federal, state and local government web resources and services.